Current Version              Previous Version:    01  02  03  04  05  06  07  08  09  10  11  12  13  14  15  16  17  18  19  20  21  22  23  24  25  26  27  28  29  30  
   31  32  33  34  35  36  37  38  39  40  41  42  43  44  45  46  47  48  49  50  51  52  53  54  55  56  57  58  59  60  

[Printable]
619
ASUS44 KFWD 241915
RWRTX
NORTH TEXAS HOURLY WEATHER ROUNDUP
NATIONAL WEATHER SERVICE FORT WORTH TX
100 PM CST SAT JAN 24 2015

NOTE: "FAIR" INDICATES FEW OR NO CLOUDS BELOW 12,000 FEET WITH NO
SIGNIFICANT WEATHER AND/OR OBSTRUCTIONS TO VISIBILITY.

TXZ118-119-242000-
DALLAS/FORT WORTH METROPLEX

CITY           SKY/WX    TMP DP  RH WIND       PRES   REMARKS
DFW AIRPORT    PTSUNNY   55  32  41 VRB3      30.12F
DALLAS LOVE    PTSUNNY   54  33  45 W5        30.13F
FTW MEACHAM    MOSUNNY   56  34  43 W8        30.13F
DAL-EXECUTIVE  MOSUNNY   55  31  39 W8        30.12F
FTW-ALLIANCE   MOSUNNY   55  33  43 VRB7      30.13F
FTW-SPINKS     SUNNY     55  32  41 W3        30.16F
ARLINGTON      MOSUNNY   56  30  37 NW7       30.14F
GRAND PRAIRIE  SUNNY     55  34  44 W9        30.15F
MESQUITE       SUNNY     54  32  43 W3        30.13F
LANCASTER      MOSUNNY   51  31  45 W6        30.15F
$$

TXZ091>094-102>105-117-120-121-131>134-242000-
NORTH CENTRAL TEXAS

CITY           SKY/WX    TMP DP  RH WIND       PRES   REMARKS
SHRMAN/DENISON SUNNY     56  40  54 NW7       30.10F
GAINESVILLE    SUNNY     55  35  46 W7        30.13F
BOWIE          SUNNY     55  35  46 NW9       30.12F
BRIDGEPORT     SUNNY     57  36  46 NW6       30.16F
DECATUR        SUNNY     55  33  42 NW7       30.13F
DENTON         SUNNY     57  34  41 NW7       30.12F
MCKINNEY       SUNNY     55  35  47 NW6       30.11F
GREENVILLE     SUNNY     55  32  41 NW5       30.11F
ROCKWALL       SUNNY     55  34  45 W7        30.12F
TERRELL        MOSUNNY   56  35  45 VRB5      30.13F
WAXAHACHIE     PTSUNNY   52  34  49 W7        30.16F
CLEBURNE       PTSUNNY   52  34  50 W9        30.16F
GRANBURY       PTSUNNY   53  35  50 W8        30.18F
$$

TXZ083>090-098>101-113>116-127>130-139>142-154-155-242000-
WESTERN NORTH TEXAS

CITY           SKY/WX    TMP DP  RH WIND       PRES   REMARKS
WICHITA FALLS  SUNNY     56  36  47 W12       30.13F
WF-KICKAPOO    SUNNY    N/A N/A N/A W8G16     30.15F
VERNON         SUNNY     57  29  34 W8        30.14F
ABILENE        PTSUNNY   50  34  54 NW7       30.19F
ABILENE-DYESS  PTSUNNY   49  35  58 NW8       30.18F
BRECKENRIDGE   PTSUNNY   53  34  47 W9        30.17F
GRAHAM         SUNNY     56  37  48 W9        30.14F
MINERAL WELLS  MOSUNNY   53  34  48 W8        30.14F
STEPHENVILLE   PTSUNNY   55  33  43 NW6       30.19F
COMANCHE       MOSUNNY   55  35  47 NW6       30.17F
BROWNWOOD      MOSUNNY   54  32  43 W8        30.18F
COLEMAN        MOSUNNY   56  36  46 NW6       30.18F
BRADY          SUNNY     55  34  44 W7        30.18F
$$

TXZ143>147-156>162-174-175-242000-
CENTRAL TEXAS

CITY           SKY/WX    TMP DP  RH WIND       PRES   REMARKS
WACO           SUNNY     57  34  41 VRB6      30.16F
WACO-TSTC      SUNNY     59  34  38 NW6       30.17F
WACO-MCGREGOR  SUNNY     57  37  47 W3        30.17F
HILLSBORO      PTSUNNY   54  36  51 W7        30.15F
CORSICANA      PTSUNNY   54  35  48 NW8       30.15F
MEXIA          MOSUNNY   52  35  51 W6        30.15F
HEARNE         SUNNY     53  38  57 SW8       30.19F
CAMERON        SUNNY     55  37  51 CALM      30.18F
TEMPLE         SUNNY     57  36  44 W6        30.16F
KILLEEN        SUNNY     57  34  42 W6        30.16F
KILLEEN-SKYLRK SUNNY     57  36  44 W5        30.13F
FORT HOOD      SUNNY     57  34  41 W7        30.15F
GATESVILLE     SUNNY     57  32  38 NW7       30.18F
HAMILTON       SUNNY     56  34  44 W8        30.18F
LAMPASAS       SUNNY     58  36  42 NW7       30.16F
$$

TXZ095>097-106>112-122>126-135>138-148>153-164>167-242000-
EAST TEXAS

CITY           SKY/WX    TMP DP  RH WIND       PRES   REMARKS
PARIS          SUNNY     54  34  47 NW7       30.09F
SULPHUR SPRNGS SUNNY     55  34  45 NW5       30.12F
MOUNT PLEASANT SUNNY     55  32  41 NW8       30.11F
GILMER         SUNNY     55  33  43 W3        30.10F
MINEOLA        SUNNY     54  30  40 W6        30.13F
TYLER          MOSUNNY   54  34  46 W5        30.12F
LONGVIEW       MOSUNNY   56  31  38 SW7       30.10F
MARSHALL       SUNNY     58  27  30 SW7       30.11F
ATHENS         PTSUNNY   50  32  50 CALM      30.13F
PALESTINE      MOSUNNY   53  33  47 SW6       30.15F
JACKSONVILLE   MOSUNNY   55  30  37 SW9       30.13F
HENDERSON      MOSUNNY   55  31  40 W6        30.12F
NACOGDOCHES    MOSUNNY   54  36  50 W6        30.14F
LUFKIN         SUNNY     57  38  48 SW7       30.14F
$$

SUPPLEMENTAL OBSERVATIONS (CENTRAL)

CITY           SKY/WX    TMP DP  RH WIND       PRES   REMARKS
LAKE TEXOMA      N/A     52  36  54 W5          N/A
CADDO GRASSLND   N/A     59  36  41 NW6         N/A
PAT MAYSE LAKE   N/A     54  32  43 W5          N/A
GREENVILLE       N/A     57  36  44 NW6         N/A
CEDAR HILL       N/A     55  32  41 SW5         N/A
PALESTINE        N/A     59  32  36 W2          N/A
LAKE LIMESTONE   N/A     55  34  44 W8          N/A
MCGREGOR         N/A     59  37  44 NW6         N/A
TEMPLE           N/A     61  36  39 W2          N/A
$$

SUPPLEMENTAL OBSERVATIONS (WEST)

CITY           SKY/WX    TMP DP  RH WIND       PRES   REMARKS
MILLERS CREEK    N/A     55  37  50 NW10        N/A
POSSUM KINGDOM   N/A     55  34  44 NW6         N/A
LBJ GRASSLAND    N/A     57  34  41 NW2G10      N/A
GRANBURY         N/A     54  34  47 NW9         N/A
COMANCHE         N/A     55  37  50 NW10        N/A
HAMBY            N/A     52  37  58 W7          N/A
IVIE RESERVOIR   N/A     55  32  41 W9          N/A
COLORADO BEND    N/A     57  32  38 NW5         N/A
$$

SUPPLEMENTAL OBSERVATIONS (EAST)

CITY           SKY/WX    TMP DP  RH WIND       PRES   REMARKS
CLARKSVILLE      N/A     57  32  38 W6          N/A
TEXARKANA        N/A     55  32  41 SW6G14      N/A
LINDEN           N/A     61  32  33 W6          N/A
CADDO LAKE       N/A     63  27  25 SW5         N/A
GILMER           N/A     57  32  38 W7          N/A
HENDERSON        N/A     55  27  33 W9          N/A
LUFKIN           N/A     57  37  47 MISG        N/A
S SABINE NF      N/A     61  41  48 SW5         N/A
$$

SUPPLEMENTAL OBSERVATIONS ARE A COLLECTION OF AUTOMATED INSTRUMENTS
THAT ARE MAINTAINED BY A VARIETY OF FEDERAL AND STATE AGENCIES.
CERTAIN ELEMENTS...SUCH AS HUMIDITY VALUES AND SUSTAINED WIND
SPEEDS...MAY BE APPROXIMATED.